Medicine Hat, Alberta

10:55 AM MST on February 21, 2017 (GMT -0700)
Medicine Hat

Weather History for CYXH - August, 2014

Change the Weather History Date:

Wednesday, August 13, 2014

  Actual Average Record
Temperature  
Mean Temperature 30 °F -  
Max Temperature 80 °F 75 °F 100 °F (2015)
Min Temperature 27 °F 48 °F 25 °F (2013)
Degree Days  
Heating Degree Days 35    
Moisture  
Dew Point 50 °F    
Average Humidity 57    
Maximum Humidity 92    
Minimum Humidity 23    
Precipitation  
Precipitation 0.01 in 0.04 in - ()
Sea Level Pressure  
Sea Level Pressure 29.82 in    
Wind  
Wind Speed 10 mph ()    
Max Wind Speed 30 mph    
Max Gust Speed 18 mph    
Visibility 9.1 miles    
Events Rain    
Averages and records for this station are not official NWS values.
T = Trace of Precipitation, MM = Missing Value Source: Averaged Metar Reports

Daily Weather History Graph

Daily Weather History Graph

Search for Another Location

Airport or City:

Trip Planner

Search our weather history database for the weather conditions in past years. The results will help you decide how hot, cold, wet, or windy it might be!

Date:

Astronomy

Aug. 13, 2014 Rise Set
Actual Time 6:09 AM MDT 8:44 PM MDT
Civil Twilight 5:33 AM MDT 9:20 PM MDT
Nautical Twilight 4:46 AM MDT 10:06 PM MDT
Astronomical Twilight 3:52 AM MDT 11:01 PM MDT
Moon 10:03 PM MDT (8/13) 10:07 AM MDT (8/13)
Length of Visible Light 15h 47m
Length of Day
14h 34m
Waning Gibbous, 87% of the Moon is Illuminated
Aug 13
Waning Gibbous
Aug 17
Last Quarter
Aug 25
New
Sep 2
First Quarter
Sep 8
Full

Hourly Weather History & Observations

Time (MDT) Temp. Heat Index Dew Point Humidity Pressure Visibility Wind Dir Wind Speed Gust Speed Precip Events Conditions
12:00 AM 31 °F - 28 °F 84% 29.76 in - NNW 13.8 mph - -  
12:00 AM 71.6 °F - 55.4 °F 57% 29.88 in 9.0 mi ENE 8.1 mph - N/A   Clear
1:00 AM 71.6 °F - 55.4 °F 57% 29.87 in 9.0 mi ENE 8.1 mph - N/A   Overcast
2:00 AM 71.6 °F - 57.2 °F 60% 29.86 in 9.0 mi ENE 11.5 mph - N/A   Mostly Cloudy
3:00 AM 71.6 °F - 57.2 °F 60% 29.81 in 9.0 mi NNE 10.4 mph 18.4 mph N/A Rain Light Rain
3:04 AM 71.6 °F - 57.2 °F 60% 29.82 in 9.0 mi NE 4.6 mph - N/A   Overcast
4:00 AM 69.8 °F - 57.2 °F 64% 29.85 in 9.0 mi NNE 5.8 mph - N/A   Overcast
6:00 AM 28 °F - 27 °F 92% 29.72 in - North 24.2 mph - -  
7:00 AM 66.2 °F - 59.0 °F 78% 29.88 in 30.0 mi East 3.5 mph - N/A   Overcast
9:00 AM 69.8 °F - 59.0 °F 68% 29.88 in 30.0 mi NNE 3.5 mph - N/A Rain Light Rain Showers
9:24 AM 71.6 °F - 59.0 °F 64% 29.88 in 30.0 mi Variable 2.3 mph - N/A   Mostly Cloudy
10:00 AM 71.6 °F - 60.8 °F 69% 29.90 in 30.0 mi South 8.1 mph - N/A   Overcast
12:00 PM 29 °F - 26 °F 86% 29.67 in - NNW 29.9 mph - -  
12:00 PM 82.4 °F 82.9 °F 60.8 °F 48% 29.86 in 30.0 mi SSW 15.0 mph - N/A   Mostly Cloudy
1:00 PM 84.2 °F 83.8 °F 59.0 °F 42% 29.85 in 30.0 mi SSW 10.4 mph - N/A   Mostly Cloudy
2:00 PM 89.6 °F - 51.8 °F 27% 29.83 in 10.0 mi West 12.7 mph - N/A   Scattered Clouds
3:00 PM 91.4 °F - 50.0 °F 24% 29.82 in 30.0 mi SSW 12.7 mph - N/A   Scattered Clouds
4:00 PM 93.2 °F - 50.0 °F 23% 29.80 in 30.0 mi SW 10.4 mph 17.3 mph N/A   Mostly Cloudy
5:00 PM 93.2 °F - 50.0 °F 23% 29.79 in 30.0 mi SW 12.7 mph - N/A   Mostly Cloudy
6:00 PM 31 °F - 28 °F 84% 29.69 in - NNW 23.0 mph - -  
8:00 PM 80.6 °F - 50.0 °F 34% 29.81 in 30.0 mi West 5.8 mph - N/A   Mostly Cloudy